Weather History for Thermal, CA

Change the Weather History Date:

Sunday, February 2, 2014

  Actual Average Record
Temperature  
Mean Temperature 47 °F 56 °F  
Max Temperature 65 °F 73 °F 91 °F (1963)
Min Temperature 29 °F 39 °F 24 °F (2002)
Degree Days  
Heating Degree Days 18 9  
Month to date heating degree days 30 18  
Since 1 July heating degree days 703 878  
Cooling Degree Days 0 0  
Month to date cooling degree days 0 0  
Year to date cooling degree days 0 2  
Growing Degree Days 0 (Base 50)    
Moisture  
Dew Point 17 °F    
Average Humidity 33    
Maximum Humidity 53    
Minimum Humidity 12    
Precipitation  
Precipitation 0.00 in 0.02 in 0.97 in (1983)
Month to date precipitation 0.00 0.04  
Year to date precipitation T 0.71  
Since 1 July precipitation 1.47 2.09  
Snow  
Snow 0.00 in - - ()
Month to date snowfall 0.0  
Year to date snowfall 0.0  
Since 1 July snowfall 0.0  
Snow Depth 0.00 in    
Sea Level Pressure  
Sea Level Pressure 30.01 in    
Wind  
Wind Speed 5 mph (East)    
Max Wind Speed 14 mph    
Max Gust Speed 18 mph    
Visibility 10 miles    
Events      
T = Trace of Precipitation, MM = Missing Value Source: NWS Daily Summary

Daily Weather History Graph

Daily Weather History Graph

Search for Another Location

Airport:

Trip Planner

Search our weather history database for the weather conditions in past years. The results will help you decide how hot, cold, wet, or windy it might be!

Date:

Astronomy

Feb. 02, 2014 Rise Set
Actual Time 6:40 AM PST 5:16 PM PST
Civil Twilight 6:14 AM PST 5:43 PM PST
Nautical Twilight 5:44 AM PST 6:12 PM PST
Astronomical Twilight 5:15 AM PST 6:42 PM PST
Moon 8:21 AM PST (2/2) 8:52 PM PST (2/2)
Length of Visible Light 11h 28m
Length of Day
10h 36m
Waxing Crescent, 12% of the Moon is Illuminated
Feb 2
Waxing Crescent
Feb 6
First Quarter
Feb 14
Full
Feb 22
Last Quarter
Mar 1
New

Hourly Weather History & Observations

Time (PST) Temp. Windchill Dew Point Humidity Pressure Visibility Wind Dir Wind Speed Gust Speed Precip Events Conditions
12:52 AM 37.0 °F 33.3 °F 12.0 °F 36% 30.06 in 10.0 mi NE 4.6 mph - N/A   Clear
1:52 AM 39.9 °F - 10.9 °F 31% 30.06 in 10.0 mi Calm Calm - N/A   Clear
2:52 AM 36.0 °F 32.1 °F 14.0 °F 41% 30.06 in 10.0 mi North 4.6 mph - N/A   Clear
3:52 AM 30.9 °F - 14.0 °F 50% 30.06 in 10.0 mi Calm Calm - N/A   Clear
4:52 AM 39.9 °F 34.5 °F 15.1 °F 36% 30.06 in 10.0 mi North 8.1 mph - N/A   Clear
5:52 AM 30.9 °F 27.5 °F 16.0 °F 54% 30.07 in 10.0 mi NW 3.5 mph - N/A   Clear
6:52 AM 36.0 °F 32.1 °F 14.0 °F 41% 30.07 in 10.0 mi North 4.6 mph - N/A   Clear
7:52 AM 44.1 °F 42.5 °F 16.0 °F 32% 30.09 in 10.0 mi North 3.5 mph - N/A   Clear
8:52 AM 50.0 °F - 19.0 °F 29% 30.09 in 10.0 mi West 3.5 mph - N/A   Clear
9:52 AM 57.0 °F - 21.0 °F 25% 30.10 in 10.0 mi NNW 5.8 mph - N/A   Clear
10:52 AM 61.0 °F - 10.9 °F 14% 30.07 in 10.0 mi North - - N/A   Clear
11:52 AM 64.0 °F - 12.0 °F 13% 30.03 in 10.0 mi SE 9.2 mph - N/A   Clear
12:52 PM 64.0 °F - 12.9 °F 14% 30.00 in 10.0 mi South 9.2 mph - N/A   Clear
1:52 PM 63.0 °F - 9.0 °F 12% 29.96 in 10.0 mi ESE 10.4 mph - N/A   Clear
2:52 PM 64.0 °F - 10.9 °F 13% 29.96 in 10.0 mi SSE 9.2 mph - N/A   Clear
3:52 PM 63.0 °F - 10.9 °F 13% 29.94 in 10.0 mi SE 10.4 mph - N/A   Clear
4:52 PM 57.0 °F - 18.0 °F 22% 29.94 in 10.0 mi South 5.8 mph - N/A   Clear
5:52 PM 52.0 °F - 21.9 °F 31% 29.94 in 10.0 mi South 3.5 mph - N/A   Clear
6:52 PM 46.0 °F 43.1 °F 24.1 °F 42% 29.95 in 10.0 mi NNW 5.8 mph - N/A   Clear
7:52 PM 44.1 °F 42.5 °F 23.0 °F 43% 29.94 in 10.0 mi WSW 3.5 mph - N/A   Clear
8:52 PM 46.9 °F - 25.0 °F 42% 29.95 in 10.0 mi Calm Calm - N/A   Clear
9:52 PM 41.0 °F 39.0 °F 23.0 °F 49% 29.95 in 10.0 mi Variable 3.5 mph - N/A   Clear
10:52 PM 43.0 °F - 26.1 °F 51% 29.94 in 10.0 mi Calm Calm - N/A   Clear
11:52 PM 43.0 °F 39.5 °F 24.1 °F 47% 29.93 in 10.0 mi SE 5.8 mph - N/A   Clear